Hourly Data Report for October 04, 2017

All times are specified in Local Standard Time (LST). Add 1 hour to adjust for Daylight Saving Time where and when it is observed.

BATHURST A
NEW BRUNSWICK

47°37'47.000" N
65°44'20.000" W
58.80 m
8100505
71574
ZBF

Download Data

Hourly Data (October 2017)
Hourly Data Report for October 4, 2017
Temp Definition
°C
Dew Point Temp Definition
°C
Rel Hum Definition
%
Wind Dir Definition
10's deg

Wind Spd Definition
km/h
Visibility Definition
km
Stn Press Definition
kPa
Hmdx Definition


Wind Chill Definition


Weather Definition


TIME
00:00 Legend Double Dagger 4.4 2.7 89 23 10 24.1 101.70     LegendNANA
01:00 Legend Double Dagger 4.3 2.5 88 23 8 24.1 101.65     LegendNANA
02:00 Legend Double Dagger 3.6 2.5 93 23 5 24.1 101.57     Mostly Cloudy
03:00 Legend Double Dagger 2.6 2.0 96 23 4 24.1 101.47     LegendNANA
04:00 Legend Double Dagger 2.1 1.7 97 20 4 24.1 101.43     LegendNANA
05:00 Legend Double Dagger 3.4 2.9 96 32 4 24.1 101.38     Mostly Cloudy
06:00 Legend Double Dagger 2.0 1.6 97 29 3 19.3 101.33     LegendNANA
07:00 Legend Double Dagger 3.0 2.6 97 36 2 24.1 101.30     LegendNANA
08:00 Legend Double Dagger 7.1 5.8 91 23 4 24.1 101.25     Mostly Cloudy
09:00 Legend Double Dagger 11.6 7.6 77 16 6 24.1 101.21     LegendNANA
10:00 Legend Double Dagger 15.2 9.5 68 16 6 24.1 101.13     LegendNANA
11:00 Legend Double Dagger 16.8 9.9 63 18 4 24.1 100.99     Mostly Cloudy
12:00 Legend Double Dagger 19.4 11.4 60 36 3 24.1 100.82     LegendNANA
13:00 Legend Double Dagger 20.3 12.7 61 5 7 24.1 100.70     LegendNANA
14:00 Legend Double Dagger 22.1 13.0 56 12 8 24.1 100.58 25   Mostly Cloudy
15:00 Legend Double Dagger 18.0 12.2 68 2 5 24.1 100.50     LegendNANA
16:00 Legend Double Dagger 20.0 13.8 67 12 4 24.1 100.40     LegendNANA
17:00 Legend Double Dagger 23.3 14.9 59 22 9 24.1 100.36 27   Mostly Cloudy
18:00 Legend Double Dagger 21.6 14.5 64 18 8 24.1 100.31 25   LegendNANA
19:00 Legend Double Dagger 20.6 14.0 66 19 6 24.1 100.25     Rain Showers
20:00 Legend Double Dagger 20.5 13.9 66 23 14 48.3 100.21     Mostly Cloudy
21:00 Legend Double Dagger 20.0 13.4 66 21 14 24.1 100.11     LegendNANA
22:00 Legend Double Dagger 19.2 13.1 68 21 12 24.1 100.03     LegendNANA
23:00 Legend Double Dagger 17.9 13.4 75 22 9 24.1 99.98     Rain Showers

Notes on Data Quality.

Legend

  • E = Estimated
  • M = Missing
  • NA = Not Available
  • ‡ = Partner data that is not subject to review by the National Climate Archives
Date modified: